Wind_Speed
17 17 17 17 18 18 20 21 22 23 24 25 26 25 24 24 24 24 22 22 20 20 19 17 16 15 15 16 17 16 16 16 16 15 15 14 13 12 10 9 8 7 6
16 16 16 16 17 17 18 20 21 22 23 24 25 25 23 23 23 24 24 23 22 21 19 18 17 16 15 16 17 17 17 17 17 16 15 15 14 13 12 11 9 9 7
16 15 15 15 14 15 15 17 19 20 22 23 24 24 24 24 23 24 24 24 22 21 20 19 17 16 16 16 17 17 18 18 17 16 16 15 15 14 13 12 11 10 9
16 15 14 14 13 12 13 14 15 17 19 21 23 24 24 24 23 24 24 24 23 22 21 20 18 16 16 16 17 18 17 17 17 16 16 15 15 15 14 13 12 11 10
16 15 14 12 11 10 11 13 14 16 17 19 21 23 23 24 24 24 24 24 24 24 22 21 20 18 17 17 17 18 18 18 17 17 16 15 15 15 15 14 13 13 12
15 14 13 11 10 8 8 10 12 15 16 17 19 21 23 24 23 24 24 24 25 24 23 22 21 20 18 17 17 18 18 18 18 18 17 16 15 15 15 15 15 14 13
15 13 12 10 9 7 5 6 9 12 13 14 16 19 21 23 23 23 24 24 26 25 24 24 23 22 20 19 18 18 18 19 19 18 17 17 16 15 16 16 16 15 15
15 13 11 10 8 6 4 4 6 8 10 12 14 16 18 21 24 25 24 25 25 26 26 25 24 23 22 21 21 20 20 20 19 19 19 18 17 17 16 17 17 17 16
15 13 11 10 9 6 4 2 3 6 7 9 12 15 16 18 21 23 24 24 25 25 26 25 24 24 23 23 22 21 21 21 21 21 20 19 19 18 18 18 19 19 18
14 13 12 11 9 7 4 2 1 3 5 7 9 12 14 16 18 19 22 24 24 25 26 26 26 26 26 25 24 23 23 22 22 23 22 21 21 20 20 19 19 20 20
13 12 11 10 9 7 5 3 1 1 3 5 7 10 12 15 16 17 19 21 23 24 26 26 26 27 27 27 26 26 26 25 24 24 24 23 23 22 21 21 21 21 21
13 11 10 9 8 7 6 4 2 1 1 4 6 8 10 12 14 16 19 20 22 24 26 27 27 28 28 28 28 29 29 28 27 27 26 25 25 24 23 22 22 23 23
13 12 10 9 8 7 5 4 3 3 2 2 5 7 9 11 13 14 16 18 20 22 24 26 27 28 29 29 29 30 30 29 29 30 29 28 28 26 26 25 25 25 25
13 12 11 10 9 7 6 5 4 3 2 2 3 5 7 10 12 13 15 16 18 20 22 23 25 26 27 29 30 31 31 30 30 31 31 31 30 29 29 28 27 27 27
13 12 11 10 9 8 7 6 5 4 3 2 3 4 5 8 11 13 14 15 17 19 21 22 24 26 27 28 30 31 32 32 32 33 33 33 33 32 32 31 30 29 29
13 12 11 10 9 8 8 7 6 5 4 3 3 3 4 5 8 10 11 13 15 17 19 21 24 25 27 29 29 30 31 32 33 34 35 35 35 35 35 34 34 34 33
14 13 11 11 10 9 8 7 6 5 5 4 4 4 4 5 6 7 9 11 13 15 17 19 22 24 26 28 29 30 31 32 33 34 35 36 37 37 37 37 37 36 36
14 13 12 11 10 9 8 8 7 6 5 4 4 4 5 6 6 7 8 9 10 12 14 16 19 21 23 25 27 29 30 31 32 34 34 36 37 38 38 39 38 38 38
14 13 13 12 11 10 9 8 7 6 6 5 5 5 5 6 6 7 7 9 10 11 13 14 16 18 21 23 25 27 28 29 31 33 34 35 37 37 38 39 40 40 40
13 13 12 12 11 10 9 9 8 7 7 6 6 6 6 6 7 7 8 9 10 11 13 14 15 17 19 21 22 24 26 28 30 32 34 35 37 38 38 39 40 41 42
13 13 12 12 11 11 10 9 9 8 7 7 7 7 7 7 8 8 9 10 11 12 13 14 16 17 18 19 21 22 24 26 29 31 32 34 36 37 38 39 39 40 42
13 12 12 11 11 11 11 10 10 9 9 8 8 8 8 9 9 9 10 11 12 13 14 14 15 16 17 19 20 21 23 24 26 28 30 32 34 34 36 37 38 39 41
13 12 12 11 11 11 11 11 11 10 10 10 10 10 9 10 10 10 11 12 13 13 14 15 15 16 17 18 19 21 22 23 24 25 27 28 31 32 34 34 35 37 39
13 12 12 12 12 12 12 12 12 11 11 11 11 11 11 11 11 12 12 13 13 14 14 15 16 16 17 18 19 20 21 22 23 24 24 25 27 29 31 33 34 35 36
13 13 13 12 12 13 13 13 13 13 12 12 12 12 12 12 12 12 13 13 14 14 14 15 16 16 17 17 18 19 20 20 21 23 23 24 26 26 28 30 32 33 34
14 14 14 13 13 13 13 13 13 13 13 13 13 13 13 13 13 13 13 14 14 15 15 15 16 16 17 17 18 19 19 20 20 21 23 23 25 25 26 28 29 31 32
Wind_Direction
309 299 290 281 273 267 258 250 245 241 237 233 231 228 225 225 225 225 221 219 217 214 213 212 212 209 206 205 204 203 201 197 195 197 198 198 197 197 198 192 191 189 185
317 306 297 287 278 271 260 249 243 238 232 229 227 223 222 221 222 221 219 220 217 212 211 210 209 209 208 205 207 205 202 200 201 201 201 202 202 201 203 202 201 201 199
324 315 306 296 285 273 260 248 239 235 230 227 225 220 220 220 220 217 218 217 215 213 211 210 209 209 209 205 205 205 204 203 202 202 203 204 205 205 206 206 207 208 209
328 323 315 306 292 276 259 246 236 230 227 227 225 220 218 218 215 215 215 214 213 212 212 211 209 208 206 202 203 202 203 203 202 202 204 205 206 208 208 208 212 213 213
330 326 322 316 303 284 263 244 234 228 225 225 224 219 216 216 215 214 215 214 212 213 213 212 210 209 207 203 203 204 205 206 204 205 205 205 209 212 213 214 215 216 214
335 331 328 324 318 302 273 246 234 228 226 222 219 219 217 215 212 212 213 213 211 213 213 213 212 211 210 209 207 206 207 208 209 208 209 209 213 216 216 216 218 216 214
342 339 336 333 325 317 288 251 233 226 224 220 218 218 217 214 213 213 214 213 212 213 213 213 212 212 213 214 212 210 209 211 213 213 214 214 217 218 219 219 217 217 217
349 347 343 342 339 335 311 264 230 220 220 219 216 215 214 213 214 215 217 217 215 215 217 215 214 215 217 218 217 216 215 216 217 217 218 218 220 221 222 221 220 220 221
355 355 353 353 352 349 342 309 232 216 210 212 214 214 212 212 215 218 220 219 219 218 219 217 218 218 219 221 221 220 220 221 222 222 222 222 223 224 224 223 223 222 223
358 359 1 2 4 5 3 357 233 214 212 214 216 217 214 211 212 217 220 221 222 222 221 221 224 225 222 224 225 225 225 225 226 226 226 226 226 226 226 226 226 226 227
358 1 6 8 11 16 19 22 38 202 220 215 216 218 219 217 216 219 220 222 224 224 222 222 226 228 226 227 229 230 229 230 230 230 230 229 229 228 229 230 231 230 231
1 3 6 9 12 21 26 29 34 25 256 228 223 224 225 221 222 224 224 225 227 227 228 229 230 230 231 231 233 234 234 234 233 232 232 232 231 232 233 234 235 235 235
3 4 5 8 13 17 21 22 16 8 328 262 241 234 228 227 225 226 226 228 229 229 230 231 231 232 233 232 235 236 236 236 234 234 234 234 235 235 236 237 238 237 238
4 5 7 7 8 10 10 10 6 359 342 292 261 245 235 230 228 232 233 234 234 233 232 233 233 233 235 235 236 237 237 237 237 237 237 237 237 238 238 238 239 240 240
2 3 5 6 7 7 5 3 359 348 339 314 284 263 250 240 237 239 240 240 240 239 238 236 236 236 238 238 238 239 239 240 240 240 240 241 240 240 240 241 241 242 242
0 2 2 3 5 6 5 1 358 352 344 327 294 276 268 259 254 248 247 247 246 243 242 239 239 240 240 241 241 242 242 242 242 242 242 242 243 243 243 243 242 243 245
358 359 359 359 359 358 356 356 356 352 345 339 327 310 290 280 271 263 258 256 253 249 247 244 243 243 244 245 245 246 246 245 243 243 243 243 244 244 244 245 244 245 247
357 359 359 357 355 353 350 350 349 348 344 334 325 312 299 287 282 274 268 265 260 255 253 251 248 248 248 247 248 248 249 248 246 245 245 245 244 244 245 246 247 247 248
354 357 359 359 358 355 353 352 349 346 341 333 324 316 302 290 286 280 274 272 268 264 260 258 256 253 251 250 251 251 251 250 249 248 248 248 247 246 246 248 248 248 249
350 353 356 359 359 359 358 354 351 347 343 337 327 321 311 298 292 288 282 279 277 274 270 268 264 261 258 254 254 254 253 253 253 252 251 251 251 250 249 249 250 250 251
346 349 353 357 359 359 358 355 350 344 339 334 330 323 317 309 301 295 290 285 283 281 279 274 270 268 264 260 258 257 257 256 257 256 256 255 254 252 252 252 252 253 253
341 344 346 349 354 355 354 352 349 344 339 332 327 323 318 312 306 299 292 288 286 284 283 280 275 274 272 267 264 260 259 258 259 259 259 258 257 255 254 254 255 255 255
334 337 340 342 345 347 348 347 346 343 338 335 329 324 319 314 309 304 298 293 290 288 287 286 283 281 279 275 271 268 264 261 260 260 261 260 258 256 256 256 257 257 257
324 327 330 333 335 337 339 340 339 337 333 330 327 324 320 316 312 308 305 302 298 294 291 289 287 286 284 281 278 274 270 267 264 264 263 263 262 261 258 258 258 259 259
311 316 320 324 326 328 329 331 332 332 329 327 325 322 319 315 312 310 307 305 303 299 296 294 291 289 286 285 283 278 274 270 267 268 268 265 264 264 262 261 261 260 261
299 305 310 314 318 320 322 323 326 327 326 324 323 322 318 315 311 309 306 305 304 301 298 295 293 291 288 286 285 282 278 274 271 269 269 268 267 266 265 265 264 263 263
Height
5802 5800 5799 5798 5798 5798 5799 5800 5802 5805 5809 5813 5817 5821 5825 5829 5832 5836 5839 5842 5844 5848 5850 5853 5856 5858 5860 5863 5866 5869 5871 5874 5877 5880 5882 5885 5887 5889 5891 5893 5895 5897 5898
5799 5796 5795 5794 5793 5793 5794 5795 5798 5800 5803 5808 5812 5817 5821 5825 5828 5831 5835 5839 5842 5845 5848 5851 5854 5856 5858 5861 5864 5867 5870 5873 5876 5878 5881 5883 5886 5888 5890 5892 5894 5896 5898
5796 5793 5791 5790 5789 5789 5789 5791 5793 5796 5799 5803 5808 5812 5816 5820 5823 5828 5832 5836 5839 5843 5846 5849 5852 5854 5857 5859 5862 5865 5868 5871 5874 5877 5879 5882 5884 5887 5889 5891 5893 5895 5897
5794 5791 5789 5787 5785 5785 5785 5787 5789 5792 5795 5799 5803 5808 5812 5815 5820 5824 5828 5832 5836 5840 5844 5847 5850 5852 5855 5857 5860 5863 5866 5869 5872 5875 5878 5880 5883 5885 5888 5890 5892 5894 5896
5792 5789 5787 5785 5783 5782 5782 5784 5786 5788 5792 5795 5799 5804 5808 5812 5816 5821 5825 5829 5833 5837 5841 5844 5847 5850 5853 5856 5858 5861 5864 5867 5870 5873 5876 5879 5881 5883 5886 5888 5890 5892 5895
5791 5788 5785 5783 5781 5780 5780 5781 5783 5785 5788 5792 5796 5800 5804 5808 5813 5817 5821 5825 5830 5833 5837 5841 5845 5848 5851 5854 5857 5859 5862 5865 5868 5871 5874 5877 5879 5881 5884 5886 5888 5890 5893
5790 5787 5784 5782 5780 5779 5779 5779 5781 5783 5786 5789 5793 5797 5801 5805 5810 5814 5817 5821 5826 5830 5833 5837 5841 5845 5848 5851 5854 5857 5860 5863 5866 5869 5872 5874 5877 5879 5881 5883 5886 5888 5891
5789 5786 5784 5782 5780 5778 5778 5778 5779 5781 5784 5787 5790 5794 5798 5802 5806 5810 5814 5818 5822 5827 5830 5834 5838 5841 5845 5849 5852 5855 5858 5861 5864 5866 5869 5872 5874 5876 5879 5881 5884 5886 5889
5789 5786 5784 5782 5780 5779 5778 5778 5779 5781 5783 5785 5788 5792 5795 5799 5802 5807 5811 5814 5818 5822 5827 5830 5834 5837 5841 5845 5848 5852 5855 5858 5861 5863 5866 5869 5871 5874 5876 5878 5881 5883 5886
5790 5787 5784 5782 5781 5779 5779 5779 5779 5780 5782 5784 5787 5789 5792 5795 5799 5803 5807 5811 5814 5818 5822 5827 5830 5834 5837 5841 5844 5848 5851 5854 5857 5860 5863 5865 5868 5870 5873 5875 5878 5880 5882
5791 5788 5786 5784 5782 5780 5780 5780 5780 5781 5782 5783 5785 5788 5790 5793 5796 5800 5803 5807 5811 5814 5818 5822 5826 5829 5832 5836 5840 5843 5846 5850 5853 5856 5858 5861 5864 5867 5869 5871 5874 5876 5879
5792 5789 5787 5785 5783 5782 5781 5781 5781 5781 5782 5783 5784 5786 5788 5791 5794 5797 5800 5803 5807 5810 5813 5817 5820 5824 5828 5831 5835 5838 5841 5844 5848 5851 5854 5857 5859 5862 5865 5867 5869 5872 5874
5793 5790 5788 5786 5784 5783 5782 5782 5782 5782 5782 5783 5784 5785 5786 5789 5791 5794 5797 5800 5802 5805 5808 5812 5815 5819 5822 5825 5829 5832 5835 5838 5841 5845 5848 5851 5854 5857 5859 5862 5864 5867 5869
5794 5791 5789 5787 5785 5784 5783 5782 5782 5782 5782 5782 5782 5783 5785 5787 5789 5791 5794 5796 5799 5801 5804 5807 5810 5813 5816 5819 5822 5825 5828 5832 5835 5838 5842 5845 5848 5851 5854 5856 5859 5861 5863
5795 5792 5790 5788 5786 5785 5784 5783 5782 5782 5781 5782 5782 5782 5783 5784 5786 5788 5790 5792 5795 5797 5799 5802 5805 5807 5810 5812 5815 5818 5822 5825 5828 5831 5834 5838 5841 5844 5847 5850 5852 5855 5857
5795 5793 5791 5789 5787 5785 5784 5783 5782 5781 5781 5781 5781 5781 5781 5782 5783 5784 5786 5787 5790 5792 5794 5796 5799 5801 5803 5806 5809 5811 5814 5817 5820 5823 5827 5830 5833 5836 5839 5842 5845 5847 5850
5796 5793 5791 5789 5787 5785 5784 5783 5782 5781 5780 5780 5780 5780 5780 5780 5781 5781 5782 5784 5785 5787 5789 5790 5792 5795 5797 5799 5801 5804 5806 5809 5812 5815 5818 5821 5824 5827 5830 5833 5836 5839 5842
5796 5793 5791 5789 5787 5785 5784 5782 5781 5781 5780 5779 5779 5779 5779 5779 5779 5779 5780 5781 5781 5783 5784 5785 5787 5788 5790 5792 5794 5796 5799 5801 5803 5806 5809 5812 5815 5818 5821 5824 5826 5829 5832
5796 5793 5791 5789 5787 5785 5783 5782 5781 5780 5779 5779 5778 5778 5777 5777 5777 5777 5778 5778 5778 5779 5780 5781 5782 5783 5784 5786 5788 5789 5791 5793 5795 5797 5799 5802 5805 5808 5811 5814 5816 5819 5822
5795 5793 5791 5789 5787 5785 5783 5781 5780 5779 5778 5778 5777 5776 5776 5775 5775 5775 5775 5775 5775 5776 5776 5776 5777 5777 5778 5780 5781 5782 5784 5785 5787 5789 5791 5793 5795 5798 5800 5803 5806 5808 5811
5795 5793 5790 5788 5787 5785 5783 5781 5780 5779 5778 5777 5776 5775 5774 5774 5773 5773 5772 5772 5772 5772 5772 5772 5772 5772 5773 5774 5775 5775 5776 5777 5779 5780 5782 5784 5786 5788 5790 5793 5795 5797 5799
5794 5792 5790 5788 5786 5784 5782 5781 5779 5778 5777 5776 5775 5774 5772 5772 5771 5770 5770 5769 5769 5769 5768 5768 5768 5768 5768 5768 5768 5769 5770 5771 5772 5773 5774 5775 5777 5779 5780 5783 5784 5786 5788
5793 5791 5789 5787 5785 5783 5781 5780 5778 5777 5775 5774 5773 5772 5771 5770 5769 5768 5767 5767 5766 5765 5765 5764 5763 5763 5763 5763 5763 5763 5763 5763 5764 5765 5766 5767 5768 5770 5771 5773 5774 5776 5777
5791 5789 5787 5786 5784 5782 5780 5778 5777 5775 5774 5772 5771 5770 5769 5768 5766 5765 5764 5763 5762 5762 5761 5760 5759 5759 5758 5758 5757 5757 5757 5757 5758 5758 5759 5759 5760 5761 5762 5763 5765 5766 5767
5788 5787 5785 5784 5782 5780 5778 5777 5775 5773 5771 5770 5769 5767 5766 5765 5764 5763 5761 5760 5759 5758 5757 5756 5755 5754 5753 5753 5752 5752 5751 5751 5752 5751 5752 5752 5753 5753 5754 5754 5755 5756 5757
5785 5784 5782 5781 5779 5778 5776 5774 5772 5771 5769 5767 5766 5764 5763 5762 5760 5759 5758 5757 5755 5754 5753 5752 5751 5750 5749 5748 5747 5747 5746 5746 5745 5745 5745 5745 5745 5745 5746 5746 5746 5746 5747